RUK45VZ EGPH-EGSS

Flight info

Callsign RUK45VZ
Flight time 0h 59m
Altitude 35000
Route GOSAM P600 FENIK L612 NAVSO DCT AKOMU DCT VAMEB UL612 LISTO
Aircraft B738/M-SDE2E3FGHIRWXY/LB1

Departure

Time 2026-04-22 18:06
Airport Edinburgh Airport (EGPH)

Arrival

Time 2026-04-22 19:06
Airport London Stansted Airport (EGSS)
Time Latitude Longitude Altitude Speed Heading
2026-04-22 16:25 55.94878 -3.36542 144 ft 0 kts 149°
2026-04-22 17:47 55.94882 -3.36546 144 ft 2 kts 149°
2026-04-22 17:47 55.94894 -3.36559 144 ft 2 kts 149°
2026-04-22 17:48 55.94905 -3.36570 144 ft 3 kts 153°
2026-04-22 17:48 55.94930 -3.36580 144 ft 3 kts 184°
2026-04-22 17:48 55.94950 -3.36570 144 ft 3 kts 207°
2026-04-22 17:48 55.94963 -3.36551 144 ft 0 kts 231°
2026-04-22 17:51 55.94960 -3.36557 144 ft 3 kts 231°
2026-04-22 17:51 55.94954 -3.36573 144 ft 2 kts 237°
2026-04-22 17:51 55.94941 -3.36610 144 ft 6 kts 238°
2026-04-22 17:51 55.94913 -3.36693 144 ft 10 kts 239°
2026-04-22 17:52 55.94914 -3.36816 144 ft 12 kts 324°
2026-04-22 17:52 55.94911 -3.36946 144 ft 14 kts 239°
2026-04-22 17:52 55.94855 -3.37113 144 ft 18 kts 239°
2026-04-22 17:52 55.94782 -3.37331 144 ft 22 kts 239°
2026-04-22 17:53 55.94695 -3.37589 144 ft 27 kts 239°
2026-04-22 17:53 55.94594 -3.37889 144 ft 28 kts 239°
2026-04-22 17:53 55.94491 -3.38195 144 ft 27 kts 239°
2026-04-22 17:53 55.94402 -3.38460 144 ft 25 kts 239°
2026-04-22 17:54 55.94335 -3.38620 144 ft 10 kts 209°
2026-04-22 17:54 55.94275 -3.38692 144 ft 11 kts 231°
2026-04-22 17:54 55.94264 -3.38722 144 ft 0 kts 239°
2026-04-22 18:03 55.94261 -3.38731 144 ft 3 kts 239°
2026-04-22 18:03 55.94251 -3.38782 144 ft 6 kts 264°
2026-04-22 18:03 55.94270 -3.38840 144 ft 7 kts 323°
2026-04-22 18:04 55.94323 -3.38898 144 ft 11 kts 329°
2026-04-22 18:04 55.94398 -3.38974 144 ft 10 kts 346°
2026-04-22 18:04 55.94435 -3.38931 144 ft 3 kts 58°
2026-04-22 18:04 55.94438 -3.38925 144 ft 0 kts 59°
2026-04-22 18:05 55.94441 -3.38914 144 ft 7 kts 59°
2026-04-22 18:06 55.94562 -3.38557 144 ft 66 kts 59°
2026-04-22 18:06 55.94919 -3.37496 144 ft 131 kts 59°
2026-04-22 18:06 55.95425 -3.35979 676 ft 147 kts 59°
2026-04-22 18:06 55.95956 -3.34354 1386 ft 159 kts 60°
2026-04-22 18:07 55.96720 -3.32797 2102 ft 174 kts 45°
2026-04-22 18:07 55.97695 -3.31415 2808 ft 182 kts 40°
2026-04-22 18:07 55.98719 -3.30076 3528 ft 186 kts 39°
2026-04-22 18:07 55.99790 -3.28717 4256 ft 189 kts 38°
2026-04-22 18:08 56.01024 -3.27907 4940 ft 197 kts
2026-04-22 18:08 56.02362 -3.28445 5654 ft 202 kts 335°
2026-04-22 18:08 56.03350 -3.30225 6346 ft 205 kts 300°
2026-04-22 18:08 56.03683 -3.32686 6925 ft 212 kts 268°
2026-04-22 18:09 56.03497 -3.35343 7578 ft 221 kts 256°
2026-04-22 18:09 56.03135 -3.38124 8214 ft 239 kts 253°
2026-04-22 18:09 56.02690 -3.41172 8856 ft 266 kts 252°
2026-04-22 18:09 56.02186 -3.44498 9481 ft 292 kts 252°
2026-04-22 18:10 56.01629 -3.48180 10107 ft 318 kts 252°
2026-04-22 18:10 56.01048 -3.52059 10880 ft 335 kts 253°
2026-04-22 18:10 56.00427 -3.56202 11749 ft 348 kts 252°
2026-04-22 18:10 55.99776 -3.60404 12601 ft 360 kts 251°
2026-04-22 18:11 55.98721 -3.64505 13458 ft 365 kts 234°
2026-04-22 18:11 55.96992 -3.67781 14313 ft 369 kts 217°
2026-04-22 18:11 55.94719 -3.69978 15187 ft 373 kts 200°
2026-04-22 18:11 55.92209 -3.71273 16059 ft 377 kts 193°
2026-04-22 18:12 55.89629 -3.72104 16917 ft 380 kts 189°
2026-04-22 18:12 55.86976 -3.72709 17784 ft 385 kts 187°
2026-04-22 18:12 55.85201 -3.73037 18354 ft 389 kts 186°
2026-04-22 18:12 55.81566 -3.73605 19494 ft 397 kts 186°
2026-04-22 18:13 55.78793 -3.74009 20349 ft 400 kts 186°
2026-04-22 18:13 55.76037 -3.74394 21193 ft 402 kts 186°
2026-04-22 18:13 55.73236 -3.74766 22045 ft 404 kts 186°
2026-04-22 18:13 55.70412 -3.75147 22903 ft 404 kts 187°
2026-04-22 18:14 55.67640 -3.75517 23745 ft 403 kts 187°
2026-04-22 18:14 55.64834 -3.75876 24600 ft 401 kts 187°
2026-04-22 18:14 55.62086 -3.76235 25442 ft 398 kts 188°
2026-04-22 18:14 55.59325 -3.76595 26248 ft 396 kts 188°
2026-04-22 18:15 55.56546 -3.76949 26821 ft 403 kts 188°
2026-04-22 18:15 55.53721 -3.77306 27336 ft 416 kts 188°
2026-04-22 18:15 55.50808 -3.77675 27841 ft 429 kts 188°
2026-04-22 18:15 55.47777 -3.78067 28349 ft 439 kts 188°
2026-04-22 18:16 55.44706 -3.78477 28852 ft 448 kts 188°
2026-04-22 18:16 55.41561 -3.78915 29359 ft 454 kts 188°
2026-04-22 18:16 55.38432 -3.79342 29856 ft 457 kts 189°
2026-04-22 18:16 55.35227 -3.79780 30361 ft 459 kts 189°
2026-04-22 18:17 55.32067 -3.80200 30857 ft 460 kts 188°
2026-04-22 18:17 55.28864 -3.80594 31360 ft 460 kts 187°
2026-04-22 18:17 55.25636 -3.80231 31876 ft 466 kts 174°
2026-04-22 18:17 55.22490 -3.78880 32398 ft 469 kts 167°
2026-04-22 18:18 55.19437 -3.77009 32915 ft 470 kts 162°
2026-04-22 18:18 55.16393 -3.74838 33433 ft 469 kts 160°
2026-04-22 18:18 55.13403 -3.72541 33942 ft 468 kts 159°
2026-04-22 18:18 55.10464 -3.70201 34439 ft 467 kts 159°
2026-04-22 18:19 55.07508 -3.67782 34942 ft 466 kts 158°
2026-04-22 18:19 55.04601 -3.65366 35330 ft 467 kts 157°
2026-04-22 18:19 55.01623 -3.62887 35449 ft 473 kts 157°
2026-04-22 18:20 54.95719 -3.57978 35464 ft 468 kts 157°
2026-04-22 18:20 54.89910 -3.53137 35458 ft 460 kts 157°
2026-04-22 18:21 54.84187 -3.48362 35457 ft 456 kts 157°
2026-04-22 18:21 54.78487 -3.43612 35456 ft 453 kts 157°
2026-04-22 18:22 54.72812 -3.38894 35455 ft 452 kts 157°
2026-04-22 18:22 54.67135 -3.34187 35454 ft 452 kts 157°
2026-04-22 18:23 54.61474 -3.29504 35458 ft 451 kts 157°
2026-04-22 18:23 54.55794 -3.24820 35455 ft 451 kts 157°
2026-04-22 18:24 54.47320 -3.17823 35448 ft 451 kts 157°
2026-04-22 18:25 54.38877 -3.10713 35441 ft 452 kts 157°
2026-04-22 18:25 54.33211 -3.06059 35436 ft 452 kts 157°
2026-04-22 18:26 54.24663 -2.99144 35428 ft 452 kts 158°
2026-04-22 18:26 54.18977 -2.94636 35422 ft 452 kts 158°
2026-04-22 18:27 54.13230 -2.90243 35418 ft 452 kts 159°
2026-04-22 18:27 54.07454 -2.85986 35414 ft 453 kts 159°
2026-04-22 18:28 54.01673 -2.81786 35413 ft 453 kts 159°
2026-04-22 18:28 53.95840 -2.77587 35412 ft 454 kts 160°
2026-04-22 18:29 53.90053 -2.73442 35410 ft 454 kts 160°
2026-04-22 18:29 53.84201 -2.69267 35411 ft 455 kts 160°
2026-04-22 18:30 53.75456 -2.63006 35414 ft 456 kts 159°
2026-04-22 18:31 53.69623 -2.58835 35416 ft 456 kts 159°
2026-04-22 18:31 53.63794 -2.54633 35423 ft 456 kts 159°
2026-04-22 18:32 53.57946 -2.50500 35428 ft 456 kts 160°
2026-04-22 18:32 53.52073 -2.46364 35432 ft 456 kts 159°
2026-04-22 18:33 53.46237 -2.42278 35435 ft 456 kts 160°
2026-04-22 18:33 53.40368 -2.38134 35436 ft 456 kts 159°
2026-04-22 18:34 53.34532 -2.34034 35436 ft 457 kts 159°
2026-04-22 18:34 53.28684 -2.29925 35435 ft 457 kts 160°
2026-04-22 18:35 53.22795 -2.25851 35434 ft 457 kts 160°
2026-04-22 18:35 53.17026 -2.21335 35425 ft 459 kts 153°
2026-04-22 18:36 53.11624 -2.15697 35419 ft 461 kts 148°
2026-04-22 18:36 53.06376 -2.09645 35401 ft 461 kts 147°
2026-04-22 18:37 53.01122 -2.03429 35392 ft 461 kts 146°
2026-04-22 18:37 52.96801 -1.98283 35388 ft 461 kts 146°
2026-04-22 18:38 52.90704 -1.91049 35385 ft 462 kts 146°
2026-04-22 18:38 52.85472 -1.84869 35385 ft 463 kts 146°
2026-04-22 18:39 52.77622 -1.75822 35325 ft 455 kts 150°
2026-04-22 18:39 52.74880 -1.73104 34904 ft 450 kts 152°
2026-04-22 18:39 52.72167 -1.70568 34424 ft 442 kts 153°
2026-04-22 18:40 52.69517 -1.68162 33929 ft 433 kts 154°
2026-04-22 18:40 52.66873 -1.65823 33425 ft 426 kts 155°
2026-04-22 18:40 52.64289 -1.63575 32926 ft 420 kts 155°
2026-04-22 18:40 52.61701 -1.61341 32421 ft 415 kts 155°
2026-04-22 18:41 52.59172 -1.59168 31923 ft 411 kts 155°
2026-04-22 18:41 52.56661 -1.57020 31424 ft 407 kts 155°
2026-04-22 18:41 52.54152 -1.54878 30920 ft 403 kts 155°
2026-04-22 18:41 52.51695 -1.52750 30422 ft 400 kts 155°
2026-04-22 18:42 52.49229 -1.50590 29916 ft 396 kts 154°
2026-04-22 18:42 52.46826 -1.48478 29419 ft 393 kts 154°
2026-04-22 18:42 52.44413 -1.46336 28915 ft 390 kts 154°
2026-04-22 18:42 52.42052 -1.44223 28417 ft 387 kts 153°
2026-04-22 18:43 52.39692 -1.42112 27914 ft 383 kts 153°
2026-04-22 18:43 52.37383 -1.40061 27419 ft 380 kts 153°
2026-04-22 18:43 52.35056 -1.38013 26915 ft 376 kts 153°
2026-04-22 18:43 52.32777 -1.36001 26418 ft 373 kts 152°
2026-04-22 18:44 52.30504 -1.33918 25912 ft 370 kts 151°
2026-04-22 18:44 52.28305 -1.31856 25416 ft 366 kts 150°
2026-04-22 18:44 52.26100 -1.29778 24914 ft 362 kts 150°
2026-04-22 18:44 52.23940 -1.27748 24416 ft 359 kts 150°
2026-04-22 18:45 52.21763 -1.25719 23911 ft 355 kts 150°
2026-04-22 18:45 52.19639 -1.23739 23413 ft 352 kts 150°
2026-04-22 18:45 52.17521 -1.21743 22910 ft 348 kts 149°
2026-04-22 18:45 52.15453 -1.19792 22414 ft 345 kts 149°
2026-04-22 18:46 52.13367 -1.17827 21909 ft 342 kts 149°
2026-04-22 18:46 52.11328 -1.15913 21411 ft 339 kts 149°
2026-04-22 18:46 52.09299 -1.14037 20913 ft 336 kts 150°
2026-04-22 18:46 52.07256 -1.12177 20409 ft 333 kts 150°
2026-04-22 18:47 52.05264 -1.10365 19913 ft 330 kts 150°
2026-04-22 18:47 52.03265 -1.08528 19416 ft 326 kts 146°
2026-04-22 18:47 52.01649 -1.06030 18951 ft 320 kts 124°
2026-04-22 18:47 52.00724 -1.02818 18473 ft 316 kts 105°
2026-04-22 18:48 52.00310 -0.99324 17990 ft 313 kts 96°
2026-04-22 18:48 52.00130 -0.95826 17496 ft 307 kts 92°
2026-04-22 18:48 52.00049 -0.92438 17001 ft 299 kts 91°
2026-04-22 18:48 52.00014 -0.89092 16498 ft 293 kts 90°
2026-04-22 18:49 51.99989 -0.85802 15993 ft 287 kts 91°
2026-04-22 18:49 51.99965 -0.82614 15494 ft 282 kts 91°
2026-04-22 18:49 51.99947 -0.79442 14991 ft 278 kts 91°
2026-04-22 18:49 51.99927 -0.76341 14491 ft 274 kts 91°
2026-04-22 18:50 51.99901 -0.73298 13994 ft 270 kts 92°
2026-04-22 18:50 51.99878 -0.70255 13492 ft 267 kts 92°
2026-04-22 18:50 51.99856 -0.67254 12991 ft 264 kts 92°
2026-04-22 18:50 51.99827 -0.64313 12495 ft 262 kts 93°
2026-04-22 18:51 51.99801 -0.61360 11994 ft 260 kts 93°
2026-04-22 18:51 51.99770 -0.58432 11492 ft 258 kts 94°
2026-04-22 18:51 51.99733 -0.55556 10996 ft 256 kts 94°
2026-04-22 18:51 51.99693 -0.52670 10493 ft 254 kts 94°
2026-04-22 18:52 51.99654 -0.49842 9995 ft 252 kts 94°
2026-04-22 18:52 51.99617 -0.47006 9591 ft 246 kts 94°
2026-04-22 18:52 51.99594 -0.45181 9422 ft 240 kts 94°
2026-04-22 18:52 51.99564 -0.42490 9174 ft 236 kts 94°
2026-04-22 18:53 51.99537 -0.39818 8918 ft 235 kts 94°
2026-04-22 18:53 51.99510 -0.37202 8672 ft 234 kts 94°
2026-04-22 18:53 51.99482 -0.34548 8421 ft 234 kts 94°
2026-04-22 18:53 51.99453 -0.31908 8171 ft 232 kts 94°
2026-04-22 18:54 51.99425 -0.29319 7923 ft 231 kts 94°
2026-04-22 18:54 51.99395 -0.26705 7671 ft 230 kts 94°
2026-04-22 18:54 51.99364 -0.24115 7421 ft 229 kts 94°
2026-04-22 18:54 51.99328 -0.21573 7173 ft 227 kts 95°
2026-04-22 18:55 51.99090 -0.19069 6904 ft 223 kts 112°
2026-04-22 18:55 51.98178 -0.17078 6677 ft 221 kts 136°
2026-04-22 18:55 51.96911 -0.15704 6447 ft 223 kts 149°
2026-04-22 18:55 51.95483 -0.14690 6198 ft 220 kts 155°
2026-04-22 18:56 51.94069 -0.13865 5953 ft 212 kts 157°
2026-04-22 18:56 51.92691 -0.13114 5692 ft 206 kts 158°
2026-04-22 18:56 51.91363 -0.12417 5443 ft 200 kts 158°
2026-04-22 18:56 51.90048 -0.11748 5181 ft 194 kts 158°
2026-04-22 18:57 51.88775 -0.11118 4934 ft 191 kts 158°
2026-04-22 18:57 51.87516 -0.10514 4755 ft 182 kts 158°
2026-04-22 18:57 51.86345 -0.09972 4600 ft 175 kts 158°
2026-04-22 18:57 51.85172 -0.09442 4419 ft 174 kts 158°
2026-04-22 18:58 51.84004 -0.08922 4246 ft 174 kts 158°
2026-04-22 18:58 51.82834 -0.08411 4071 ft 174 kts 158°
2026-04-22 18:58 51.81677 -0.07915 3899 ft 174 kts 158°
2026-04-22 18:58 51.80503 -0.07419 3719 ft 173 kts 158°
2026-04-22 18:59 51.79347 -0.06943 3546 ft 173 kts 158°
2026-04-22 18:59 51.78177 -0.06467 3368 ft 173 kts 158°
2026-04-22 18:59 51.77010 -0.06002 3193 ft 172 kts 158°
2026-04-22 18:59 51.75841 -0.05545 3032 ft 171 kts 158°
2026-04-22 19:00 51.75083 -0.05256 2987 ft 167 kts 157°
2026-04-22 19:00 51.73932 -0.03876 2855 ft 155 kts 115°
2026-04-22 19:00 51.73835 -0.02153 2821 ft 159 kts 85°
2026-04-22 19:00 51.74111 -0.00412 2781 ft 163 kts 77°
2026-04-22 19:01 51.74533 0.01298 2691 ft 165 kts 68°
2026-04-22 19:01 51.75130 0.02873 2621 ft 167 kts 59°
2026-04-22 19:01 51.75869 0.04341 2557 ft 170 kts 53°
2026-04-22 19:01 51.76694 0.05734 2482 ft 171 kts 50°
2026-04-22 19:02 51.77552 0.07069 2414 ft 172 kts 48°
2026-04-22 19:02 51.78419 0.08375 2344 ft 172 kts 47°
2026-04-22 19:02 51.79299 0.09688 2262 ft 172 kts 47°
2026-04-22 19:02 51.80170 0.10987 2194 ft 161 kts 47°
2026-04-22 19:03 51.80928 0.12106 2072 ft 138 kts 48°
2026-04-22 19:03 51.81607 0.13125 1909 ft 133 kts 48°
2026-04-22 19:03 51.82285 0.14148 1753 ft 132 kts 48°
2026-04-22 19:03 51.82954 0.15162 1592 ft 132 kts 45°
2026-04-22 19:04 51.83625 0.16174 1445 ft 131 kts 44°
2026-04-22 19:04 51.84288 0.17166 1297 ft 131 kts 44°
2026-04-22 19:04 51.84958 0.18170 1139 ft 131 kts 44°
2026-04-22 19:04 51.85630 0.19178 965 ft 131 kts 44°
2026-04-22 19:05 51.86299 0.20184 790 ft 131 kts 43°
2026-04-22 19:05 51.86959 0.21177 602 ft 131 kts 43°
2026-04-22 19:05 51.87629 0.22183 405 ft 130 kts 43°
2026-04-22 19:05 51.88229 0.23089 357 ft 91 kts 43°
2026-04-22 19:06 51.88550 0.23570 357 ft 48 kts 43°
2026-04-22 19:06 51.88753 0.23876 357 ft 32 kts 44°
2026-04-22 19:06 51.88845 0.24116 357 ft 19 kts 76°
2026-04-22 19:07 51.88902 0.24456 357 ft 16 kts 96°
2026-04-22 19:07 51.88912 0.24601 357 ft 13 kts 43°
2026-04-22 19:07 51.88987 0.24713 357 ft 16 kts 43°
2026-04-22 19:07 51.89077 0.24847 357 ft 19 kts 43°
2026-04-22 19:08 51.89182 0.25006 357 ft 22 kts 48°
2026-04-22 19:08 51.89196 0.25207 357 ft 19 kts 131°
2026-04-22 19:08 51.89116 0.25346 357 ft 15 kts 131°
2026-04-22 19:08 51.89127 0.25430 357 ft 8 kts 43°
2026-04-22 19:09 51.89154 0.25471 357 ft 2 kts 43°
2026-04-22 19:09 51.89155 0.25473 357 ft 0 kts 43°